Tracking 29892 objects as of 21-Nov-2024
HD Live streaming from Space Station
objects crossing your sky now

STARLINK-5930

Track STARLINK-5930 now!
10-day predictions
STARLINK-5930 is classified as:


NORAD ID: 55928
Int'l Code: 2023-037Q
Perigee: 577.1 km
Apogee: 581.3 km
Inclination: 70.0 °
Period: 96.1 minutes
Semi major axis: 6950 km
RCS: Unknown
Launch date: March 17, 2023
Source: United States (US)
Launch site: AIR FORCE WESTERN TEST RANGE (AFWTR)
Your satellite tracking list
Your tracking list is empty




NASA's NSSDC Master Catalog

Two Line Element Set (TLE):
1 55928U 23037Q   24324.71061266  .00001424  00000-0  12706-3 0  9998
2 55928  70.0008  61.8974 0003005 267.6729  92.4086 14.98337957 92341
Source of the keplerian elements: AFSPC